TimeCDT,TemperatureF,Dew PointF,Humidity,Sea Level PressureIn,VisibilityMPH,Wind Direction,Wind SpeedMPH,Gust SpeedMPH,PrecipitationIn,Events,Conditions,WindDirDegrees,DateUTC
12:52 AM,36.0,27.0,70,30.10,10.0,North,5.8,-,N/A,,Clear,10,2011-10-19 05:52:00
1:52 AM,35.1,27.0,72,30.10,10.0,North,6.9,-,N/A,,Clear,10,2011-10-19 06:52:00
2:52 AM,33.1,26.1,75,30.10,10.0,North,5.8,-,N/A,,Clear,10,2011-10-19 07:52:00
3:52 AM,32.0,26.1,79,30.10,10.0,North,8.1,-,N/A,,Clear,10,2011-10-19 08:52:00
4:52 AM,34.0,26.1,73,30.10,10.0,NNW,10.4,-,N/A,,Clear,340,2011-10-19 09:52:00
5:52 AM,35.1,26.1,70,30.11,10.0,North,10.4,-,N/A,,Clear,350,2011-10-19 10:52:00
6:52 AM,33.8,26.6,75,30.11,10.0,North,9.2,-,N/A,,Clear,360,2011-10-19 11:52:00
7:52 AM,33.1,25.0,72,30.14,10.0,North,13.8,-,N/A,,Clear,350,2011-10-19 12:52:00
8:52 AM,35.6,24.8,65,30.13,10.0,North,16.1,21.9,N/A,,Clear,350,2011-10-19 13:52:00
9:52 AM,36.0,25.0,64,30.16,10.0,North,17.3,-,N/A,,Clear,350,2011-10-19 14:52:00
10:52 AM,39.9,26.1,58,30.16,10.0,NNW,15.0,-,N/A,,Partly Cloudy,340,2011-10-19 15:52:00
11:52 AM,43.0,26.1,51,30.16,10.0,NNW,20.7,27.6,N/A,,Scattered Clouds,340,2011-10-19 16:52:00
12:52 PM,46.0,25.0,44,30.14,10.0,North,19.6,27.6,N/A,,Scattered Clouds,350,2011-10-19 17:52:00
1:52 PM,48.0,25.0,41,30.12,10.0,NNW,18.4,24.2,N/A,,Partly Cloudy,340,2011-10-19 18:52:00
2:52 PM,48.2,24.8,40,30.08,10.0,NW,16.1,26.5,N/A,,Partly Cloudy,320,2011-10-19 19:52:00
3:52 PM,48.9,25.0,39,30.09,10.0,North,13.8,-,N/A,,Clear,350,2011-10-19 20:52:00
4:52 PM,48.0,24.1,39,30.09,10.0,NNW,15.0,-,N/A,,Clear,340,2011-10-19 21:52:00
5:52 PM,46.0,23.0,40,30.09,10.0,NNW,16.1,-,N/A,,Clear,330,2011-10-19 22:52:00
6:52 PM,43.0,25.0,49,30.10,10.0,NNW,10.4,-,N/A,,Clear,330,2011-10-19 23:52:00
7:52 PM,42.1,26.1,53,30.11,10.0,North,6.9,-,N/A,,Clear,350,2011-10-20 00:52:00
8:52 PM,37.4,26.6,65,30.08,10.0,North,5.8,-,N/A,,Clear,350,2011-10-20 01:52:00
9:52 PM,37.9,28.0,68,30.12,10.0,North,5.8,-,N/A,,Scattered Clouds,10,2011-10-20 02:52:00
10:52 PM,37.9,28.9,70,30.11,10.0,NNE,4.6,-,N/A,,Mostly Cloudy,20,2011-10-20 03:52:00
11:52 PM,36.0,28.9,76,30.09,10.0,North,6.9,-,N/A,,Partly Cloudy,360,2011-10-20 04:52:00